Location: Newark
(34.9500°N, 139.9667°E)
Time: 14:13:20
(UTC+00:00)

Vanguard 1 Rocket - Pass Details

Date: 16 December 2019
Orbit: 650 x 4226 km, 34.3° (Epoch: 25 January)

Event Time Altitude Azimuth Distance (km) Brightness Sun altitude
Rises 07:05:22 0° 209° (SSW) 8,186 13.5 3.6°
Reaches altitude 10° 07:11:37 10° 202° (SSW) 7,349 13.0 2.5°
Maximum altitude 07:34:12 39° 143° (SE) 4,991 11.1 -1.6°
Drops below altitude 10° 07:51:14 10° 83° (E) 5,725 10.9 -4.7°
Enters shadow 07:53:42 - 79° (ENE) 6,078 11.0 -5.2°
Sets 07:55:13 0° 76° (ENE) 6,316 - -5.4°
